Location: Arbon
(43.0005°N, 0.7472°E)
Time: 09:18:42
(UTC+00:00)

Vanguard 2 Rocket - Pass Details

Date: 29 November 2020
Orbit: 554 x 3325 km, 32.9° (Epoch: 21 January)

Event Time Altitude Azimuth Distance (km) Brightness Sun altitude
Rises 04:04:21 0° 180° (S) 6,515 11.3 -32.7°
Reaches altitude 10° 04:11:37 10° 160° (SSE) 5,930 11.2 -31.4°
Maximum altitude 04:20:39 15° 132° (SE) 5,763 11.5 -29.8°
Drops below altitude 10° 04:30:02 10° 103° (ESE) 6,259 12.1 -28.0°
Sets 04:37:55 0° 85° (E) 7,081 12.7 -26.6°
